Location: Ponte Samoggia
(44.5667°N, 11.1333°E)
Time: 21:55:11
(UTC+00:00)

USA 305 - Pass Details

Date: 26 May 2022
Orbit: 549 x 553 km, 54.0° (Epoch: 14 June)

Event Time Altitude Azimuth Distance (km) Brightness Sun altitude
Exits shadow 01:02:59 25° 275° (W) 1,133 4.2 -19.7°
Maximum altitude 01:05:00 44° 333° (NNW) 764 3.7 -19.5°
Drops below altitude 10° 01:08:59 10° 47° (NE) 1,827 6.6 -19.2°
Sets 01:11:18 0° 54° (NE) 2,723 7.5 -19.0°
